This is the latest recevied weather packets stored in our database for station/object F4ELU-13. If no packets are shown the sender has not sent any weather packets the latest 10 day(s).
| Time | Temp. | Humidity | Pressure | Rain* | Wind** | Luminosity | Snow |
|---|---|---|---|---|---|---|---|
| 1777512963 | 10° C | 81% | 1016 hPa | 0 mm | - | - | - |
| 1777512423 | 10° C | 82% | 1016 hPa | 0 mm | - | - | - |
| 1777511883 | 10.56° C | 80% | 1015.9 hPa | 0 mm | - | - | - |
| 1777511343 | 11.11° C | 79% | 1016 hPa | 0 mm | - | - | - |
| 1777510803 | 11.11° C | 78% | 1016 hPa | 0 mm | - | - | - |
| 1777510443 | 11.67° C | 78% | 1016.1 hPa | 0 mm | - | - | - |
| 1777509903 | 12.22° C | 76% | 1016 hPa | 0 mm | - | - | - |
| 1777509363 | 11.67° C | 79% | 1015.9 hPa | 0 mm | - | - | - |
| 1777508823 | 11.67° C | 82% | 1016 hPa | 0 mm | - | - | - |
| 1777508283 | 12.22° C | 79% | 1016 hPa | 0 mm | - | - | - |
| 1777507744 | 12.22° C | 79% | 1015.8 hPa | 0 mm | - | - | - |
| 1777507203 | 11.67° C | 81% | 1015.9 hPa | 0 mm | - | - | - |
| 1777506843 | 12.22° C | 81% | 1016 hPa | 0 mm | - | - | - |
| 1777506303 | 12.78° C | 77% | 1015.9 hPa | 0 mm | - | - | - |
| 1777505763 | 13.33° C | 76% | 1015.8 hPa | 0 mm | - | - | - |
| 1777505223 | 13.33° C | 77% | 1015.7 hPa | 0 mm | - | - | - |
| 1777504683 | 13.33° C | 77% | 1015.6 hPa | 0 mm | - | - | - |
| 1777504144 | 13.89° C | 77% | 1015.4 hPa | 0 mm | - | - | - |
| 1777503603 | 13.89° C | 77% | 1015.5 hPa | 0 mm | - | - | - |
| 1777503243 | 13.89° C | 77% | 1015.5 hPa | 0 mm | - | - | - |
| 1777502703 | 13.89° C | 77% | 1015.2 hPa | 0 mm | - | - | - |
| 1777502163 | 13.89° C | 77% | 1015.3 hPa | 0 mm | - | - | - |
| 1777501623 | 13.89° C | 77% | 1015.2 hPa | 0 mm | - | - | - |
| 1777501083 | 13.89° C | 77% | 1015.2 hPa | 0 mm | - | - | - |
| 1777500543 | 13.89° C | 77% | 1015.2 hPa | 0 mm | - | - | - |
* Rain latest hour (hover to see other rain measurements)
** Current wind speed in m/s (hover to see current wind gust speed)